Вернуться в каталог

THOR ABLESTAR DEB

АктивенLEO
NORAD 243·DEBRIS·🇺🇸 United States

Запущен Jun 29, 1961 с Cape Canaveral Space Force Station

Loading…

Ближайшие Пролёты (ближайшие 24 часа)

TLE

СвежийSource: Space-Track

Эпоха: Sep 5, 2026, 05:01 UTC

1   243U 61015BY  26248.20907920  .00000456  00000-0  35088-3 0  9995
2   243  66.4626 162.0553 0021557  24.2612 335.9480 14.02043415294517

Отслеживайте THOR ABLESTAR DEB в реальном времени с AllMySat

Download on the App Store